{"data":{"norad_id":65997,"intl_designator":"2025-231C","name":"HULIANWANG DIGUI-89","alt_names":[],"object_type":"PAYLOAD","status":"ACTIVE","operator":null,"country":"PRC","launch_date":"2025-10-16","launch_site_code":"WSC","launch_vehicle":null,"mission":null,"orbit_class":"UNKNOWN","rcs_meters":null,"size_class":null,"mass_kg":null,"dimensions":null,"purposes":[],"wikipedia_slug":null,"has_3d_model":false,"image_url":null,"decayed_at":null,"tle_current":{"epoch":"2026-05-25T00:02:13.709184Z","epoch_age_seconds":68745,"freshness":"FRESH","line1":"1 65997U 25231C   26145.00154756 -.00000107  00000+0  37422-4 0  9995","line2":"2 65997  49.9970 258.8703 0000926 152.2276 207.8645 13.29327221 29804","mean_motion":13.29327221,"eccentricity":9.26e-5,"inclination_deg":49.997,"raan_deg":258.8703,"arg_perigee_deg":152.2276,"mean_anomaly_deg":207.8645,"bstar":3.7422e-5,"rev_number":2980,"period_min":108.32547301008,"perigee_km":1148.6049216517,"apogee_km":1149.9990033475,"semimajor_km":7527.4389624996,"source":"CELESTRAK","updated_at":"2026-05-25T13:38:05.883400Z"}}}